Location: Prairie Dale
(45.6972°N, 104.5033°W)
Time: 09:59:08
(UTC+00:00)

AAUSAT CUBESAT 2 - Visible Passes

Search period start: 29 June 2022 00:00
Search period end: 09 July 2022 00:00
Orbit: 565 x 583 km, 97.5° (Epoch: 28 June)

Date Brightness Start Highest point End Pass type
(mag) Time Alt. Az. Time Alt. Az. Time Alt. Az.
06 Jul ? 10:31:14 10° E 10:31:49 10° E 10:32:23 10° E visible
07 Jul ? 10:33:46 10° ENE 10:35:02 11° E 10:36:18 10° ESE visible
08 Jul ? 10:36:33 10° ENE 10:38:15 12° E 10:39:56 10° ESE visible
